Regional Weather Roundup
Issued by NWS Nashville, TN

Home | Current Version | Previous Version | Text Only | Print | Product List | Glossary On
Versions: 1 2 3 4 5 6 7 8 9 10 11 12 13 14 15 16 17 18 19 20 21 22 23 24 25 26 27 28
000
ASUS44 KOHX 011610
RWROHX
MIDDLE TENNESSEE HOURLY WEATHER ROUNDUP
NATIONAL WEATHER SERVICE NASHVILLE TN
1100 AM CDT SUN MAY 01 2016

NOTE: "FAIR" INDICATES FEW OR NO CLOUDS BELOW 12,000 FEET WITH
NO SIGNIFICANT WEATHER AND/OR OBSTRUCTIONS TO VISIBILITY.

* THESE REPORTS ARE NOT UNDER NWS QUALITY CONTROL AND MAY NOT
  REPORT WEATHER SUCH AS PRECIPITATION AND FOG.


TNZ005>011-023>034-057-059-062>066-078-080-011700
...NORTHERN MIDDLE TENNESSEE...

CITY           SKY/WX    TMP DP  RH WIND       PRES   REMARKS
CLARKSVILLE    CLOUDY    71  65  81 S7        29.95S
CROSSVILLE     MOSUNNY   74  61  63 VRB6      30.02F
NASHVILLE      PTSUNNY   73  63  68 S7        29.97F
SMYRNA         MOSUNNY   75  64  68 SW7       29.98F
SPARTA         PTSUNNY   75  64  69 W10       29.99S
$$
TNZ056-058-060-061-075>077-079-093>097-011700
...SOUTHERN MIDDLE TENNESSEE...

CITY           SKY/WX    TMP DP  RH WIND       PRES   REMARKS
COLUMBIA       MOSUNNY   75  75 100 SW7       29.97S
FAYETTEVILLE   CLOUDY    72  64  78 SW8       30.01S
MCMINNVILLE    PTSUNNY   73  64  73 SW7       30.00S
SHELBYVILLE    PTSUNNY   73  66  78 SW9       30.00F
TULLAHOMA      MOSUNNY   73  70  88 S10       30.01S
WINCHESTER     PTSUNNY   73  64  73 SW7       30.01F
$$


...KEY TO REMARKS...
VSB - VISIBILITY IN MILES
WCI - WIND CHILL INDEX
HX  - HEAT INDEX





USA.gov is the U.S. government's official web portal to all federal, state and local government web resources and services.